[[{"header":{"parameterUnit":"m.s-1","parameterCategory":1,"la1":30.2991,"la2":30.254,"lo1":-89.0895,"lo2":-89.0444,"dy":0.0017,"dx":0.0017,"nx":28,"ny":28,"refTime":"2023-07-28T09:00:00:Z","depth":0,"parameterNumber":2,"parameterNumberName":"U-component_of_WINDS"},"data":[0,0,0,0,0,0,0,0,0,0,0,0,0,0,0,0,0,0,0,0,0,0,0,0,0,0,0,0,0,0,0,0,0,0,0,0,0,0,0,0,0,0,0,0,0,0,0,0,0,0,0,0,0,0,0,0,0,0,0.0947,0.0948,0,0.1072,0.1073,0.1075,0.1108,0.1108,0.1107,0.1106,0.1237,0.1241,0.1245,0,0,0,0,0,0,0,0,0,0,0,0,0,0.0739,0.0742,0.0947,0.0948,0.095,0.1072,0.1073,0.1075,0.1108,0.1108,0.1107,0.1106,0.1236,0.1241,0.1246,0,0,0,0,0,0,0,0,0,0,0,0,0,0.0843,0.0744,0.0947,0.0981,0.0985,0.1071,0.1073,0.1075,0.1109,0.1107,0.1106,0.1105,0.1234,0.124,0.1246,0.1307,0,0,0.1266,0.1268,0,0,0,0,0,0,0,0,0.0837,0.0851,0.0975,0.0979,0.0984,0.1073,0.1048,0.1153,0.1109,0.1062,0.1106,0.1105,0.1184,0.1194,0.122,0.1314,0.1319,0.1266,0.127,0.1273,0.1274,0,0,0,0,0,0,0,0.083,0.0845,0.0996,0.0976,0.0982,0.0991,0.1005,0.1068,0.1128,0.1066,0.1069,0.1083,0.1186,0.1214,0.1223,0.1321,0.1266,0.1271,0.1275,0.1278,0.147,0.1471,0,0,0,0,0,0,0.0816,0.0839,0.0992,0.1,0.0906,0.0996,0.1011,0.1046,0.1127,0.1138,0.1084,0.1084,0.1204,0.1216,0.1228,0.1304,0.1273,0.1278,0.1282,0.1469,0.147,0.1472,0,0,0,0,0,0,0.0812,0.083,0.0987,0.092,0.0941,0.1,0.1039,0.1049,0.1077,0.114,0.1151,0.1101,0.1203,0.1219,0.1287,0.1309,0.1281,0.1287,0.1467,0.1469,0.1471,0.1457,0,0,0,0,0,0,0.0806,0.0828,0.0851,0.0921,0.0945,0.1044,0.1041,0.1052,0.1087,0.1089,0.116,0.117,0.1204,0.1277,0.1293,0.1317,0.1292,0.1465,0.1468,0.147,0.1456,0.1459,0.1461,0,0,0,0,0,0.0798,0.0844,0.0852,0.0871,0.0975,0.1045,0.1059,0.1095,0.1089,0.1113,0.1154,0.1168,0.1304,0.1284,0.1302,0.1329,0.1464,0.1467,0.147,0.1455,0.1458,0.1461,0,0,0,0,0,0,0.0777,0.0853,0.0864,0.0933,0.0982,0.105,0.1082,0.1098,0.115,0.115,0.1194,0.1209,0.1274,0.1308,0.1284,0.1391,0.1384,0.1391,0.1367,0.137,0.1373,0.1363,0.1297,0,0,0,0,0,0.078,0.0829,0.0894,0.0949,0.0972,0.1023,0.1055,0.1078,0.1131,0.1153,0.1198,0.125,0.1304,0.1339,0.1393,0.1461,0.1477,0.1488,0.149,0.1492,0.1498,0.1535,0.1541,0.1482,0.1482,0.1482,0,0,0.0787,0.0835,0.0864,0.0945,0.0986,0.1037,0.104,0.1094,0.1132,0.1161,0.1227,0.1262,0.1323,0.1391,0.1423,0.1421,0.1517,0.1496,0.1497,0.1502,0.1539,0.1544,0.1549,0.1484,0.1483,0.1483,0,0,0.0827,0.0868,0.0917,0.0958,0.1019,0.1052,0.1063,0.1129,0.1153,0.122,0.1242,0.1289,0.1381,0.1423,0.1456,0.1509,0.1524,0.1526,0.1538,0.1575,0.1579,0.1584,0.1602,0.1608,0.1531,0.1531,0.1531,0,0.0829,0.0905,0.0941,0.0994,0.1028,0.1055,0.1106,0.1143,0.1219,0.1243,0.1239,0.1355,0.1398,0.1475,0.1488,0.1514,0.1529,0.1518,0.1575,0.158,0.1585,0.1603,0.161,0.153,0.153,0.153,0.1531,0,0.0904,0.0956,0.0989,0.106,0.1099,0.115,0.1194,0.1229,0.1249,0.1282,0.1349,0.1401,0.1465,0.1485,0.1506,0.1565,0.1562,0.1567,0.1561,0.1589,0.1607,0.1614,0.153,0.153,0.153,0.153,0,0,0.0935,0.1023,0.1035,0.1067,0.1135,0.1177,0.1229,0.129,0.1319,0.137,0.1415,0.1491,0.1495,0.1533,0.1558,0.159,0.1628,0.1591,0.1593,0.1595,0.1696,0.1692,0.17,0.1638,0.1639,0.164,0.1691,0,0.0982,0.1076,0.1109,0.1186,0.1235,0.126,0.1305,0.1352,0.1384,0.1431,0.1467,0.152,0.1521,0.1544,0.1576,0.1616,0.1649,0.1613,0.168,0.1682,0.1664,0.1709,0.1706,0.1751,0.1698,0.1699,0.17,0,0.1051,0.1101,0.1182,0.1243,0.1265,0.1305,0.1363,0.1407,0.146,0.1481,0.1522,0.1545,0.1601,0.159,0.1667,0.1642,0.1671,0.1695,0.1698,0.1706,0.1693,0.1718,0.1766,0.1773,0.1711,0.171,0.171,0,0.1065,0.1152,0.1212,0.1239,0.1311,0.1339,0.1371,0.1423,0.1457,0.1508,0.153,0.1587,0.1619,0.1662,0.17,0.1689,0.1773,0.1766,0.1792,0.1791,0.181,0.1808,0.1863,0.1828,0.1828,0.1828,0.1828,0,0.1114,0.1163,0.1219,0.1256,0.1311,0.1348,0.1402,0.1435,0.1481,0.1525,0.1551,0.1592,0.1638,0.1685,0.1715,0.1774,0.1788,0.1806,0.1814,0.1804,0.1802,0.1824,0.1822,0.183,0.1829,0.1829,0.1829,0,0.1139,0.1179,0.1245,0.1308,0.1325,0.1362,0.1416,0.1453,0.1485,0.154,0.1556,0.1607,0.1663,0.1704,0.1778,0.1797,0.186,0.1868,0.1842,0.1845,0.1869,0.1866,0.194,0.1952,0.1909,0.191,0.191,0,0.1169,0.1206,0.1272,0.1303,0.1334,0.1383,0.1418,0.1456,0.1491,0.1554,0.1583,0.164,0.1688,0.1777,0.1821,0.1877,0.1886,0.1908,0.1895,0.1883,0.1886,0.1883,0.1887,0.191,0.191,0.191,0.1911,0,0.1216,0.1233,0.1282,0.1336,0.1376,0.1421,0.1467,0.1491,0.1537,0.1575,0.1632,0.1669,0.1742,0.1799,0.1859,0.1892,0.1909,0.1914,0.1923,0.1914,0.1897,0.1906,0.1847,0.1913,0.1912,0.1912,0.1912,0.1912,0.1244,0.1278,0.133,0.1382,0.142,0.1462,0.1499,0.1535,0.1583,0.1645,0.1665,0.1723,0.1775,0.1857,0.189,0.1937,0.1937,0.195,0.1953,0.1956,0.1955,0.1889,0.1948,0.1948,0.1948,0.1948,0.1948,0,0.1293,0.1327,0.1374,0.1436,0.1478,0.1488,0.1539,0.1573,0.1624,0.167,0.1716,0.1781,0.1836,0.1883,0.194,0.1968,0.1977,0.1982,0.198,0.1988,0.1952,0.1939,0.1974,0.1973,0.1973,0.1973,0.1973,0.1973,0.1323,0.1381,0.1404,0.1481,0.1515,0.1571,0.1599,0.1638,0.1674,0.1745,0.179,0.182,0.1867,0.1927,0.1978,0.199,0.201,0.2013,0.2027,0.1993,0.199,0.1987,0.1975,0.2017,0.2017,0.2059,0.2059,0.2059]},{"header":{"parameterUnit":"m.s-1","parameterCategory":1,"la1":30.2991,"la2":30.254,"lo1":-89.0895,"lo2":-89.0444,"dy":0.0017,"dx":0.0017,"nx":28,"ny":28,"refTime":"2023-07-28T09:00:00:Z","depth":0,"parameterNumber":3,"parameterNumberName":"V-component_of_WINDS"},"data":[0,0,0,0,0,0,0,0,0,0,0,0,0,0,0,0,0,0,0,0,0,0,0,0,0,0,0,0,0,0,0,0,0,0,0,0,0,0,0,0,0,0,0,0,0,0,0,0,0,0,0,0,0,0,0,0,0,0,2.2604,2.2603,0,2.2569,2.2569,2.2569,2.2589,2.259,2.2591,2.2591,2.2552,2.255,2.2548,0,0,0,0,0,0,0,0,0,0,0,0,0,2.2683,2.2681,2.2604,2.2603,2.2603,2.2569,2.2569,2.2568,2.2588,2.259,2.2591,2.2592,2.2553,2.255,2.2548,0,0,0,0,0,0,0,0,0,0,0,0,0,2.2648,2.2681,2.2604,2.2609,2.2609,2.2569,2.2569,2.2568,2.2588,2.259,2.2591,2.2592,2.2553,2.255,2.2548,2.25,0,0,2.2538,2.2537,0,0,0,0,0,0,0,0,2.265,2.2645,2.2609,2.2609,2.2609,2.2585,2.2582,2.2545,2.2588,2.2596,2.2592,2.2593,2.2561,2.2558,2.2548,2.2498,2.2496,2.2538,2.2536,2.2535,2.2534,0,0,0,0,0,0,0,2.2652,2.2647,2.259,2.2608,2.2608,2.2612,2.2608,2.2575,2.2571,2.2595,2.2597,2.2593,2.2562,2.2551,2.2547,2.2495,2.2538,2.2536,2.2534,2.2533,2.2402,2.2401,0,0,0,0,0,0,2.2655,2.2649,2.2591,2.2589,2.2634,2.2609,2.2605,2.2591,2.2571,2.257,2.2591,2.2594,2.2555,2.2551,2.2546,2.2487,2.2535,2.2532,2.2531,2.2404,2.2402,2.24,0,0,0,0,0,0,2.2657,2.265,2.2593,2.2619,2.2612,2.2606,2.259,2.2589,2.2579,2.2568,2.2567,2.2581,2.2556,2.255,2.2511,2.2486,2.2531,2.2528,2.2406,2.2403,2.2401,2.237,0,0,0,0,0,0,2.2659,2.265,2.2633,2.2619,2.2611,2.2559,2.2588,2.2588,2.2574,2.2577,2.2558,2.2557,2.2557,2.2515,2.2508,2.2483,2.2526,2.2408,2.2405,2.2402,2.2373,2.2366,2.2361,0,0,0,0,0,2.2662,2.2625,2.2632,2.2625,2.2589,2.2558,2.2553,2.2555,2.2572,2.2554,2.2547,2.2557,2.249,2.2511,2.2503,2.2476,2.241,2.2406,2.2402,2.2375,2.2368,2.2361,0,0,0,0,0,0,2.2635,2.2623,2.2631,2.2589,2.2574,2.2561,2.2538,2.2547,2.2526,2.2529,2.2531,2.2527,2.2486,2.2478,2.2501,2.2428,2.2452,2.2447,2.2435,2.2427,2.2421,2.2423,2.2524,0,0,0,0,0,2.2625,2.2601,2.2592,2.2555,2.2548,2.2544,2.2531,2.2534,2.2518,2.2512,2.2502,2.2485,2.246,2.2444,2.242,2.2372,2.2367,2.235,2.2344,2.2339,2.2334,2.2306,2.2297,2.2388,2.2388,2.2388,0,0,2.2602,2.2593,2.2578,2.255,2.2539,2.2513,2.2539,2.2511,2.2491,2.2507,2.2469,2.2462,2.2443,2.2399,2.2379,2.2391,2.2308,2.2334,2.2331,2.2328,2.2301,2.2292,2.2285,2.2385,2.2386,2.2386,0,0,2.2547,2.2539,2.2507,2.2496,2.2479,2.2477,2.247,2.2455,2.2451,2.2414,2.2425,2.2401,2.2358,2.2344,2.2331,2.2271,2.2279,2.2264,2.2231,2.2204,2.2197,2.2191,2.2167,2.2159,2.2259,2.2259,2.2259,0,2.2521,2.2484,2.2489,2.246,2.2447,2.2461,2.2428,2.2416,2.2393,2.2382,2.2396,2.2343,2.2331,2.2283,2.2268,2.2258,2.2248,2.2265,2.2198,2.2192,2.2186,2.2163,2.2155,2.2257,2.2257,2.2257,2.2257,0,2.2451,2.2425,2.2401,2.2379,2.2363,2.2332,2.2331,2.2314,2.2319,2.2314,2.2275,2.2262,2.2236,2.2225,2.2229,2.2177,2.2184,2.2198,2.2222,2.2175,2.2154,2.2145,2.2254,2.2254,2.2255,2.2256,0,0,2.2377,2.2359,2.235,2.2339,2.2322,2.2302,2.2271,2.2246,2.223,2.2214,2.2186,2.215,2.2163,2.2148,2.215,2.2127,2.2078,2.2143,2.2143,2.213,2.2017,2.2005,2.1995,2.2084,2.2082,2.2081,2.2018,0,2.232,2.2267,2.2271,2.222,2.2195,2.2209,2.2182,2.2167,2.2163,2.214,2.2134,2.2108,2.2128,2.2119,2.2096,2.2088,2.2055,2.2093,2.2056,2.2055,2.2058,2.1985,2.1972,2.1913,2.201,2.2009,2.2008,0,2.2246,2.2227,2.2174,2.2161,2.215,2.2126,2.2103,2.2082,2.2065,2.2063,2.2047,2.2053,2.202,2.2047,2.2,2.2026,2.2011,2.2005,2.2003,2.1997,2.2027,2.1975,2.1895,2.1885,2.1995,2.1996,2.1997,0,2.2194,2.2156,2.212,2.2111,2.2094,2.2076,2.2068,2.2054,2.2038,2.2018,2.2008,2.1983,2.1969,2.195,2.1948,2.1968,2.19,2.1927,2.1896,2.1896,2.1879,2.188,2.1793,2.1873,2.1873,2.1874,2.1874,0,2.2129,2.2095,2.2096,2.2073,2.2036,2.204,2.2002,2.1996,2.1983,2.1957,2.1968,2.1944,2.1945,2.1919,2.1918,2.1878,2.1873,2.1869,2.1868,2.1866,2.1866,2.1855,2.1858,2.1871,2.1872,2.1872,2.1873,0,2.2064,2.2064,2.2024,2.2012,2.2008,2.1981,2.197,2.1947,2.1944,2.1912,2.1904,2.1899,2.1869,2.1867,2.1833,2.1832,2.1783,2.1788,2.1789,2.1789,2.1757,2.1759,2.1658,2.1643,2.1735,2.1734,2.1734,0,2.2021,2.1996,2.1981,2.1966,2.1957,2.1932,2.1917,2.192,2.1903,2.1882,2.1861,2.1834,2.1812,2.1764,2.1756,2.173,2.1733,2.1699,2.1729,2.1727,2.1729,2.173,2.1726,2.1692,2.1691,2.1691,2.169,0,2.1944,2.1945,2.1924,2.1901,2.1883,2.1865,2.1849,2.1835,2.1836,2.1816,2.1787,2.177,2.1736,2.1707,2.1682,2.1672,2.168,2.1681,2.1672,2.1669,2.1669,2.1666,2.1771,2.1683,2.1684,2.1684,2.1684,2.1685,2.1887,2.1865,2.1851,2.1826,2.1814,2.1799,2.1776,2.1771,2.1747,2.172,2.1724,2.1691,2.1674,2.164,2.1629,2.1602,2.1613,2.16,2.1597,2.1593,2.1589,2.1675,2.1597,2.1598,2.1598,2.1598,2.1598,0,2.1809,2.1801,2.1778,2.1755,2.1735,2.1747,2.1729,2.1711,2.1683,2.1667,2.1645,2.1611,2.1583,2.1573,2.1546,2.1526,2.1529,2.1519,2.1519,2.1516,2.1581,2.1591,2.1517,2.1517,2.1517,2.1517,2.1517,2.1517,2.1766,2.1728,2.1727,2.1683,2.1675,2.1644,2.1633,2.1618,2.1605,2.1567,2.1545,2.1539,2.1525,2.1497,2.1471,2.1469,2.1457,2.1444,2.1443,2.1504,2.1512,2.152,2.1528,2.1442,2.1442,2.138,2.1379,2.1379]}]]